DW8780 Weather Reports


Display with metric or nautical units.
time (UTC)temp
F
wind
direction
speed
MPH
gust
MPH
rain 1hr
in
rain 24hr
in
rain mn
in
humidity
%
barometer
mb
20260904034503 79 6 0.0 2.0 0.00 0.02 0.02 94 1013.8
20260904034003 79 3 0.0 2.0 0.00 0.02 0.02 94 1014.0
20260904033503 79 1 0.0 2.0 0.00 0.02 0.02 94 1014.2
20260904033003 80 112 0.0 1.0 0.00 0.02 0.02 94 1014.3
20260904032003 80 18 1.0 2.0 0.00 0.02 0.02 94 1014.2
20260904031503 80 13 1.0 2.0 0.00 0.02 0.02 95 1014.4
20260904031003 80 15 1.0 2.0 0.00 0.02 0.02 95 1014.4
20260904030503 80 92 0.0 2.0 0.00 0.02 0.02 94 1014.5
20260904030003 80 238 0.0 2.0 0.00 0.02 0.02 94 1014.5
20260904025503 80 313 0.0 2.0 0.00 0.02 0.02 94 1014.5
20260904025003 80 309 0.0 2.0 0.00 0.02 0.02 94 1014.4
20260904024504 80 21 0.0 2.0 0.00 0.02 0.02 94 1014.4
20260904024003 80 17 0.0 2.0 0.00 0.02 0.02 94 1014.3
20260904023504 80 3 0.0 2.0 0.00 0.02 0.02 94 1014.3
20260904023003 80 3 0.0 3.0 0.00 0.02 0.02 94 1014.2
20260904022003 80 13 0.0 3.0 0.00 0.02 0.02 93 1014.1
20260904021503 80 11 1.0 3.0 0.00 0.02 0.02 93 1014.2
20260904021003 80 4 1.0 3.0 0.00 0.02 0.02 93 1014.2
20260904020503 80 3 1.0 3.0 0.00 0.02 0.02 93 1014.2
20260904020004 80 2 1.0 4.0 0.00 0.02 0.02 93 1014.3
20260904015503 80 1 1.0 6.0 0.00 0.02 0.02 93 1014.4
20260904015003 80 2 2.0 6.0 0.00 0.02 0.02 93 1014.3
20260904014504 80 6 1.0 3.0 0.00 0.02 0.02 93 1014.4
20260904014003 80 10 1.0 3.0 0.00 0.02 0.02 92 1014.6
20260904013503 80 6 1.0 4.0 0.00 0.02 0.02 92 1014.5
20260904013003 80 3 1.0 4.0 0.00 0.02 0.02 92 1014.7
20260904012503 81 1 1.0 3.0 0.00 0.02 0.02 92 1014.8
20260904012003 81 1 1.0 3.0 0.00 0.02 0.02 92 1014.8
20260904011503 81 2 1.0 3.0 0.00 0.02 0.02 91 1014.9
20260904011003 81 2 1.0 2.0 0.00 0.02 0.02 91 1015.0
20260904010504 81 2 1.0 3.0 0.00 0.02 0.02 91 1014.9
20260904010003 81 5 1.0 3.0 0.00 0.02 0.02 90 1015.0
20260904005503 81 6 1.0 2.0 0.00 0.02 0.02 90 1015.0
20260904005004 81 2 1.0 2.0 0.00 0.02 0.02 89 1015.0
20260904004503 81 3 1.0 2.0 0.00 0.02 0.02 89 1015.0
20260904004003 81 2 1.0 2.0 0.00 0.02 0.02 89 1014.9
20260904003003 82 1 1.0 2.0 0.00 0.02 0.02 88 1014.9
20260904002503 82 3 1.0 2.0 0.00 0.02 0.02 88 1014.8
20260904002003 82 4 1.0 2.0 0.00 0.02 0.02 87 1014.8
20260904001503 82 3 1.0 2.0 0.00 0.02 0.02 87 1014.6
20260904001003 82 5 0.0 2.0 0.00 0.02 0.02 87 1014.6
20260904000503 82 3 1.0 3.0 0.00 0.02 0.02 87 1014.4
20260904000004 83 3 1.0 3.0 0.00 0.02 0.02 86 1014.3
20260903235503 83 4 1.0 2.0 0.00 0.02 0.02 86 1014.1
20260903235003 83 5 1.0 3.0 0.00 0.02 0.02 85 1014.2
20260903234503 83 4 1.0 5.0 0.00 0.02 0.02 85 1014.2
20260903234003 84 3 1.0 5.0 0.00 0.02 0.02 84 1014.1
20260903233503 84 5 1.0 5.0 0.00 0.02 0.02 83 1014.0
20260903233003 84 5 1.0 5.0 0.00 0.02 0.02 83 1014.2
20260903232503 84 8 1.0 5.0 0.00 0.02 0.02 82 1014.3
20260903230504 85 1 1.0 4.0 0.00 0.02 0.02 80 1014.2
20260903230003 86 2 1.0 4.0 0.00 0.02 0.02 80 1014.2
20260903225004 86 11 1.0 3.0 0.00 0.02 0.02 80 1014.2
20260903224503 86 9 1.0 2.0 0.00 0.02 0.02 78 1014.1
20260903224003 86 4 1.0 3.0 0.00 0.02 0.02 78 1014.1
20260903223503 86 4 1.0 3.0 0.00 0.02 0.02 77 1014.1
20260903223003 87 2 1.0 3.0 0.00 0.02 0.02 77 1014.0
20260903222505 87 4 1.0 4.0 0.00 0.02 0.02 78 1014.0
20260903222003 87 5 1.0 5.0 0.00 0.02 0.02 78 1014.1
20260903221504 87 3 1.0 7.0 0.00 0.02 0.02 76 1014.1
20260903221003 87 5 1.0 7.0 0.00 0.02 0.02 77 1014.1
20260903220503 87 353 1.0 3.0 0.00 0.02 0.02 76 1014.2
20260903220003 87 349 1.0 4.0 0.00 0.02 0.02 76 1014.3
20260903215003 87 354 1.0 5.0 0.00 0.02 0.02 75 1014.2
20260903214503 87 347 1.0 6.0 0.00 0.02 0.02 75 1014.3
20260903214003 87 345 1.0 6.0 0.00 0.02 0.02 74 1014.2
20260903213503 87 356 1.0 4.0 0.00 0.02 0.02 73 1014.2
20260903213003 87 354 2.0 8.0 0.00 0.02 0.02 76 1014.2
20260903212503 87 337 2.0 8.0 0.00 0.02 0.02 75 1014.2
20260903212003 87 334 2.0 8.0 0.00 0.02 0.02 73 1014.3
20260903211503 87 354 1.0 6.0 0.00 0.02 0.02 73 1014.3
20260903210003 88 355 2.0 6.0 0.00 0.02 0.02 74 1014.4
20260903205505 88 348 2.0 7.0 0.00 0.02 0.02 75 1014.4
20260903204503 88 323 3.0 13.0 0.00 0.02 0.02 75 1014.6
20260903204003 88 330 3.0 13.0 0.00 0.02 0.02 73 1014.5
20260903203504 88 356 2.0 6.0 0.00 0.02 0.02 73 1014.7
20260903202503 87 336 2.0 8.0 0.00 0.02 0.02 75 1014.8
20260903202003 87 340 2.0 8.0 0.00 0.02 0.02 76 1014.9
20260903201503 87 348 2.0 6.0 0.00 0.02 0.02 77 1015.0
20260903201003 87 347 3.0 10.0 0.00 0.02 0.02 75 1015.1
20260903200503 87 341 3.0 11.0 0.00 0.02 0.02 76 1015.2
20260903200004 87 342 2.0 11.0 0.00 0.02 0.02 76 1015.1
20260903195503 87 354 2.0 6.0 0.00 0.02 0.02 76 1015.1
20260903195003 87 344 2.0 12.0 0.00 0.02 0.02 78 1015.1
20260903194504 87 335 3.0 12.0 0.00 0.02 0.02 76 1014.9
20260903194003 87 328 3.0 10.0 0.00 0.02 0.02 78 1015.1
20260903193004 87 345 2.0 7.0 0.00 0.02 0.02 79 1015.2
20260903192503 87 325 3.0 16.0 0.00 0.02 0.02 78 1015.3
20260903192004 87 325 3.0 16.0 0.00 0.02 0.02 78 1015.3
20260903191504 87 331 3.0 11.0 0.00 0.03 0.02 78 1015.5
20260903191003 87 317 4.0 14.0 0.00 0.08 0.02 77 1015.5
20260903190503 87 326 3.0 14.0 0.00 0.15 0.02 79 1015.5
20260903185503 87 356 2.0 8.0 0.00 0.46 0.02 77 1015.6
20260903183503 86 355 2.0 7.0 0.00 0.68 0.02 80 1016.0
20260903183003 86 359 2.0 7.0 0.00 0.68 0.02 80 1016.0
20260903182003 85 350 1.0 5.0 0.00 0.68 0.02 82 1016.1
20260903181503 85 339 2.0 15.0 0.00 0.68 0.02 79 1015.9
20260903181003 85 341 2.0 15.0 0.00 0.68 0.02 79 1016.0
20260903180503 85 353 1.0 6.0 0.00 0.68 0.02 81 1016.0
20260903180004 86 335 2.0 12.0 0.00 0.68 0.02 78 1016.2
20260903175503 86 326 3.0 12.0 0.00 0.68 0.02 79 1016.2
20260903174503 85 342 2.0 7.0 0.00 0.68 0.02 80 1016.1
20260903174003 85 337 2.0 7.0 0.00 0.68 0.02 80 1016.4
20260903173503 85 330 3.0 12.0 0.00 0.68 0.02 80 1016.6
20260903173003 85 316 5.0 14.0 0.00 0.68 0.02 81 1016.5
20260903172003 85 322 3.0 14.0 0.00 0.68 0.02 80 1016.7
20260903171003 85 323 4.0 14.0 0.00 0.68 0.02 81 1016.9
20260903170503 85 330 3.0 14.0 0.00 0.68 0.02 80 1016.9
20260903170003 85 354 2.0 8.0 0.00 0.68 0.02 80 1016.8
20260903165503 84 354 1.0 4.0 0.00 0.68 0.02 82 1016.8
20260903165004 84 354 1.0 6.0 0.00 0.68 0.02 82 1016.6
20260903164503 84 350 1.0 6.0 0.00 0.68 0.02 83 1017.0
20260903164004 84 334 2.0 6.0 0.00 0.68 0.02 83 1017.3
20260903163003 84 347 2.0 7.0 0.00 0.68 0.02 82 1017.3
20260903162503 84 347 3.0 9.0 0.00 0.68 0.02 80 1017.4
20260903162003 84 349 3.0 9.0 0.00 0.68 0.02 79 1017.3
20260903161503 85 355 3.0 11.0 0.00 0.68 0.02 80 1017.2
20260903161003 85 354 3.0 11.0 0.00 0.68 0.02 80 1017.2
20260903160503 85 353 2.0 9.0 0.00 0.68 0.02 81 1017.2
20260903160003 85 358 1.0 3.0 0.00 0.68 0.02 81 1017.2
20260903155503 85 356 2.0 6.0 0.00 0.68 0.02 79 1017.3
20260903155003 85 358 2.0 7.0 0.00 0.68 0.02 80 1017.3
20260903154503 85 358 2.0 7.0 0.00 0.68 0.02 80 1017.2
20260903154004 84 358 2.0 8.0 0.00 0.68 0.02 84 1017.2
20260903153503 84 1 2.0 8.0 0.00 0.68 0.02 81 1017.4
20260903153003 84 359 2.0 11.0 0.00 0.68 0.02 84 1017.2
20260903152503 84 358 3.0 11.0 0.00 0.68 0.02 81 1017.2
20260903152003 84 1 2.0 9.0 0.00 0.68 0.02 82 1017.1
20260903151004 84 358 2.0 8.0 0.00 0.68 0.02 81 1017.4
20260903150503 84 359 4.0 11.0 0.00 0.68 0.02 82 1017.2
20260903150004 84 359 3.0 11.0 0.00 0.68 0.02 82 1016.9
20260903145504 83 358 2.0 12.0 0.00 0.68 0.02 85 1016.9
20260903145003 83 359 4.0 12.0 0.00 0.68 0.02 85 1016.6
20260903144503 82 1 6.0 14.0 0.00 0.68 0.02 84 1016.6
20260903143503 81 1 6.0 13.0 0.00 0.68 0.02 86 1016.8
20260903143003 81 1 5.0 13.0 0.00 0.68 0.02 87 1016.9
20260903142503 81 359 5.0 13.0 0.00 0.68 0.02 88 1017.1
20260903142003 80 1 4.0 12.0 0.00 0.68 0.02 88 1017.1
20260903141503 80 1 4.0 11.0 0.00 0.68 0.02 90 1017.3
20260903141004 79 1 4.0 14.0 0.00 0.68 0.02 90 1017.3
20260903140503 79 1 5.0 14.0 0.00 0.68 0.02 90 1017.4
20260903140004 79 2 3.0 9.0 0.00 0.68 0.02 90 1017.6
20260903135503 79 2 4.0 11.0 0.00 0.68 0.02 91 1017.5
20260903135004 79 1 5.0 13.0 0.00 0.68 0.02 92 1017.3
20260903134503 79 1 5.0 13.0 0.00 0.68 0.02 92 1017.1
20260903134003 78 2 4.0 10.0 0.00 0.68 0.02 94 1017.1
20260903133503 78 1 4.0 10.0 0.00 0.68 0.02 95 1017.4
20260903133002 77 2 4.0 10.0 0.00 0.68 0.02 95 1017.5
20260903132503 77 2 3.0 9.0 0.00 0.68 0.02 96 1017.8
20260903132003 77 5 2.0 8.0 0.00 0.68 0.02 96 1018.1
20260903131503 76 5 2.0 8.0 0.00 0.68 0.02 97 1018.2
20260903131003 76 4 2.0 8.0 0.00 0.68 0.02 97 1018.4
20260903130503 76 30 1.0 5.0 0.00 0.68 0.02 97 1018.6
20260903130003 76 13 2.0 6.0 0.00 0.68 0.02 97 1018.6
20260903125504 76 13 2.0 6.0 0.00 0.68 0.02 97 1018.7
20260903125003 76 56 1.0 5.0 0.00 0.68 0.02 98 1018.7
20260903124503 76 35 2.0 6.0 0.00 0.68 0.02 98 1018.7
20260903124005 76 29 2.0 6.0 0.00 0.68 0.02 98 1018.7
20260903123504 75 69 2.0 5.0 0.00 0.68 0.02 98 1018.7
20260903123004 75 57 2.0 5.0 0.00 0.68 0.02 98 1018.8
20260903122503 75 32 2.0 6.0 0.00 0.68 0.02 98 1019.0
20260903122003 75 38 2.0 6.0 0.00 0.68 0.02 98 1018.9
20260903121503 75 69 2.0 5.0 0.00 0.68 0.02 97 1018.9
20260903121004 75 87 2.0 5.0 0.00 0.68 0.02 97 1019.2
20260903120503 75 88 2.0 5.0 0.00 0.68 0.02 97 1019.1
20260903120003 74 94 1.0 5.0 0.00 0.68 0.02 97 1019.0
20260903115503 74 95 1.0 3.0 0.00 0.68 0.02 97 1018.9
20260903115003 74 88 1.0 4.0 0.00 0.68 0.02 97 1019.0
20260903114503 74 84 2.0 5.0 0.00 0.68 0.02 97 1019.0
20260903114003 74 80 2.0 5.0 0.00 0.68 0.02 97 1019.1
20260903113503 74 74 2.0 4.0 0.00 0.68 0.02 97 1019.1
20260903112003 74 100 1.0 3.0 0.00 0.68 0.02 97 1018.5
20260903111503 74 90 0.0 3.0 0.00 0.68 0.02 97 1018.2
20260903110503 74 13 1.0 4.0 0.00 0.68 0.02 97 1018.0
20260903110003 74 12 1.0 4.0 0.00 0.68 0.02 97 1018.0
20260903105503 74 96 1.0 3.0 0.00 0.68 0.02 97 1018.1
20260903105004 74 99 1.0 3.0 0.00 0.68 0.02 97 1018.0
20260903104503 74 92 0.0 2.0 0.00 0.68 0.02 97 1017.9
20260903104005 74 93 1.0 2.0 0.00 0.68 0.02 97 1018.0
20260903103504 74 100 1.0 2.0 0.00 0.68 0.02 97 1017.9
20260903103003 74 104 0.0 2.0 0.00 0.68 0.02 97 1017.9
20260903102503 74 105 0.0 2.0 0.00 0.68 0.02 97 1018.0
20260903102003 74 92 1.0 2.0 0.00 0.68 0.02 97 1017.9
20260903101003 74 64 1.0 2.0 0.00 0.68 0.02 97 1018.0
20260903095503 74 52 1.0 3.0 0.00 0.68 0.02 97 1018.1
20260903095003 74 35 1.0 3.0 0.00 0.68 0.02 97 1017.9
20260903094503 74 93 0.0 2.0 0.00 0.68 0.02 97 1018.0
20260903094003 74 99 0.0 2.0 0.00 0.68 0.02 97 1018.0
20260903093503 74 93 1.0 3.0 0.00 0.68 0.02 97 1018.0
20260903092503 74 5 1.0 3.0 0.00 0.68 0.02 97 1018.0
20260903091503 74 64 1.0 3.0 0.00 0.68 0.02 97 1017.8
20260903091004 74 61 0.0 2.0 0.00 0.68 0.02 97 1018.0
20260903090503 74 8 0.0 2.0 0.00 0.68 0.02 97 1017.8
20260903085503 74 95 0.0 2.0 0.00 0.68 0.02 97 1017.7
20260903085003 74 15 1.0 5.0 0.00 0.68 0.02 97 1017.7
20260903084503 74 6 1.0 6.0 0.00 0.68 0.02 97 1017.6
20260903084003 74 18 1.0 6.0 0.01 0.68 0.02 97 1017.8
20260903083504 74 79 1.0 3.0 0.01 0.68 0.02 97 1017.9
20260903083003 74 91 1.0 4.0 0.01 0.68 0.02 97 1018.0
20260903082505 74 90 1.0 6.0 0.01 0.68 0.02 97 1018.2
20260903082003 74 82 2.0 6.0 0.01 0.68 0.02 97 1018.5
20260903081504 74 56 2.0 8.0 0.01 0.68 0.02 97 1018.5
20260903081003 74 41 2.0 8.0 0.01 0.68 0.02 97 1018.7
20260903080504 74 52 2.0 6.0 0.01 0.68 0.02 97 1018.6
20260903080003 74 49 3.0 9.0 0.01 0.68 0.02 97 1018.3
20260903075503 74 45 3.0 9.0 0.01 0.68 0.02 97 1018.1
20260903075003 74 55 2.0 5.0 0.01 0.68 0.02 97 1018.1
20260903074504 74 62 2.0 4.0 0.01 0.68 0.02 97 1017.7
20260903074004 74 57 1.0 3.0 0.00 0.67 0.01 97 1017.6
20260903073504 74 57 0.0 2.0 0.00 0.67 0.01 97 1017.5
20260903073003 74 72 0.0 2.0 0.00 0.67 0.01 97 1017.5
20260903072003 74 81 0.0 2.0 0.00 0.67 0.01 97 1017.4
20260903071503 74 90 0.0 2.0 0.00 0.67 0.01 97 1017.3
20260903071004 74 7 1.0 3.0 0.00 0.67 0.01 97 1017.5
20260903070503 74 1 1.0 3.0 0.00 0.67 0.01 97 1017.3
20260903065503 74 1 1.0 6.0 0.00 0.67 0.01 97 1017.4
20260903065004 74 3 2.0 4.0 0.00 0.67 0.01 97 1017.3
20260903064503 74 1 3.0 6.0 0.00 0.67 0.01 97 1017.1
20260903064003 74 1 3.0 7.0 0.00 0.67 0.01 97 1017.0
20260903063503 74 2 2.0 7.0 0.00 0.67 0.01 97 1017.0
20260903063003 74 3 2.0 4.0 0.00 0.67 0.01 97 1017.1
20260903062003 74 1 1.0 5.0 0.00 0.67 0.01 97 1017.1
20260903061004 74 1 1.0 5.0 0.01 0.67 0.01 97 1017.2
20260903060503 74 3 1.0 5.0 0.01 0.67 0.01 97 1017.2
20260903060004 74 20 0.0 3.0 0.01 0.67 0.01 97 1017.4
20260903055503 74 7 1.0 4.0 0.01 0.67 0.01 97 1017.3
20260903055003 74 3 1.0 4.0 0.01 0.67 0.01 96 1017.3
20260903054503 74 3 1.0 2.0 0.01 0.67 0.01 96 1017.3
20260903054003 74 53 1.0 3.0 0.01 0.67 0.01 97 1017.5
20260903053504 74 96 1.0 3.0 0.01 0.67 0.01 97 1017.7
20260903053003 74 97 1.0 3.0 0.01 0.67 0.01 97 1018.0
20260903052504 74 92 1.0 4.0 0.01 0.67 0.01 97 1018.0
20260903052003 74 63 1.0 4.0 0.01 0.67 0.01 97 1018.0
20260903051003 74 85 1.0 3.0 0.00 0.66 0.00 97 1018.2
20260903050503 74 97 1.0 4.0 0.00 0.66 0.00 97 1018.2
20260903050004 74 68 0.0 4.0 0.00 0.66 0.00 97 1018.3
20260903045503 74 83 1.0 3.0 0.00 0.69 0.00 97 1018.3
20260903045003 74 70 1.0 4.0 0.00 0.73 0.00 97 1018.3
20260903044503 74 60 1.0 4.0 0.00 0.74 0.00 97 1018.1
20260903044003 74 90 1.0 4.0 0.00 0.74 0.00 96 1018.1
20260903043503 74 93 1.0 3.0 0.00 0.74 0.00 97 1018.2
20260903042503 74 87 1.0 4.0 0.00 0.74 0.00 97 1018.3
20260903042003 74 83 2.0 3.0 0.00 0.74 0.00 96 1018.2
20260903041503 74 74 1.0 3.0 0.00 0.74 0.00 96 1018.2
20260903040003 74 83 1.0 2.0 0.00 0.74 0.00 96 1018.2
20260903035503 74 73 1.0 3.0 0.00 0.74 0.74 96 1018.3
20260903035003 74 86 1.0 3.0 0.00 0.74 0.74 96 1018.2